Regional Weather Roundup
Issued by NWS

Home | Current Version | Previous Version | Graphics & Text | Print | Product List | Glossary Off
Versions: 1 2 3 4 5 6 7 8 9 10 11 12 13 14 15 16 17 18 19 20 21 22 23 24 25 26 27 28 29 30 31 32 33 34 35 36 37 38 39 40 41 42 43 44 45 46 47 48 49 50

000
ASUS43 KTOP 240559
RWRKS

WEATHER ROUNDUP FOR KANSAS
NATIONAL WEATHER SERVICE GOODLAND KS
1200 AM CST FRI FEB 24 2017

NOTE:  "FAIR" INDICATES FEW OR NO CLOUDS BELOW 12,000 FEET WITH NO
SIGNIFICANT WEATHER AND/OR OBSTRUCTIONS TO VISIBILITY.

KSZ001>006-013>018-027>032-041>047-240700-
NORTHWEST KANSAS

CITY           SKY/WX    TMP DP  RH WIND       PRES   REMARKS
GOODLAND       CLOUDY    24  20  84 N25G31    29.76S WCI   8
6HR MIN TEMP:  24; 6HR MAX TEMP:  29;

HAYS           CLOUDY    33  27  78 N21G26    29.71R WCI  21
HILL CITY      CLOUDY    30  27  86 N14G25    29.76R WCI  20
RUSSELL        CLOUDY    33  29  85 NW16      29.69R WCI  23
6HR MIN TEMP:  33; 6HR MAX TEMP:  40; 6HR PCP:  0.01;

$$

KSZ061>065-074>080-084>089-240700-
SOUTHWEST KANSAS

CITY           SKY/WX    TMP DP  RH WIND       PRES   REMARKS
DODGE CITY     CLOUDY    33  25  72 N25G32    29.70F WCI  20
6HR MIN TEMP:  32; 6HR MAX TEMP:  41;

GARDEN CITY    CLOUDY    30  22  72 N23G32    29.75R WCI  17
6HR MIN TEMP:  30; 6HR MAX TEMP:  39;

GREAT BEND     CLOUDY    35  29  78 NW26      29.67F WCI  22
LIBERAL        MOCLDY    32  21  64 N18G25    29.76R WCI  20
$$

KSZ066>073-081>083-090>101-240700-
SOUTHEAST KANSAS

CITY           SKY/WX    TMP DP  RH WIND       PRES   REMARKS
CHANUTE        PTCLDY    48  43  82 NW18G26   29.48R
6HR MIN TEMP:  48; 6HR MAX TEMP:  75; 6HR PCP: TRACE;

COFFEYVILLE    PTCLDY    54  45  71 NW23      29.46R
6HR MIN TEMP:  54; 6HR MAX TEMP:  77;

HUTCHINSON     CLOUDY    38  33  82 NW21G28   29.63R WCI  28
6HR MIN TEMP:  38; 6HR MAX TEMP:  68;

MEDICINE LODGE   N/A     38  31  76 N17G28    29.64R WCI  28
NEWTON         CLOUDY    40  35  83 NW22G31   29.60R WCI  30
PARSONS        PTCLDY    50  43  77 NW21G36   29.48R
6HR MIN TEMP:  50; 6HR MAX TEMP:  78;

WICHITA INTL   CLOUDY    42  36  79 NW29G36   29.58S
6HR MIN TEMP:  41; 6HR MAX TEMP:  70;

WICHITA JABRA  CLOUDY    42  37  82 NW23G31   29.56R
6HR MIN TEMP:  40; 6HR MAX TEMP:  71;

WINFIELD       MOCLDY    43  38  82 N17G23    29.57R
6HR MIN TEMP:  42; 6HR MAX TEMP:  74;

$$

KSZ007>012-019>026-033>040-048>060-102>105-240700-
NORTHEAST KANSAS

CITY           SKY/WX    TMP DP  RH WIND       PRES   REMARKS
CONCORDIA      CLOUDY    33  32  96 NW17G28   29.63R WCI  22
6HR MIN TEMP:  33; 6HR MAX TEMP:  41; 6HR PCP:  0.07;

EMPORIA        CLOUDY    43  37  81 N12       29.53R
LAWRENCE       CLOUDY    44  42  93 NW25G36   29.48R
6HR MIN TEMP:  44; 6HR MAX TEMP:  55;

MANHATTAN      CLOUDY    42  37  82 MISG      29.58R
6HR MIN TEMP:  41; 6HR MAX TEMP:  49; 6HR PCP: TRACE;

OLATHE IND     CLOUDY    48  45  89 NW22G30   29.45R
6HR MIN TEMP:  47; 6HR MAX TEMP:  56;

OLATHE EXE     CLOUDY    48  47  96 NW17G25   29.42R
6HR MIN TEMP:  47; 6HR MAX TEMP:  56; 6HR PCP: TRACE;

SALINA         CLOUDY    39  33  79 NW22G28   29.64R WCI  29
6HR MIN TEMP:  39; 6HR MAX TEMP:  53;

TOPEKA BILLARD CLOUDY    43  40  89 N13       29.50S
6HR MIN TEMP:  42; 6HR MAX TEMP:  58; 6HR PCP: TRACE;

TOPEKA FORBES  CLOUDY    43  39  86 N15       29.49S
6HR MIN TEMP:  42; 6HR MAX TEMP:  59; 6HR PCP: TRACE;

$$




USA.gov is the U.S. government's official web portal to all federal, state and local government web resources and services.